Total_Precipitation_Accumulation
1.75 1.77 1.73 1.67 1.54 1.50 1.52 1.49 1.44 1.46 1.52 1.52 1.42 1.33 1.41 1.42 1.36 1.42 1.44 1.48 1.56 1.70 1.84 1.98 2.17 2.46 2.79 2.84 2.80 2.67 2.57 2.47 2.26 2.04 1.88 1.79 2.07 2.10 2.01 1.88 1.88 1.87 1.67
1.59 1.64 1.65 1.53 1.42 1.39 1.38 1.31 1.17 1.09 1.09 1.21 1.34 1.27 1.26 1.29 1.34 1.43 1.42 1.44 1.48 1.56 1.65 1.76 1.98 2.32 2.69 2.89 2.95 2.81 2.66 2.57 2.44 2.29 1.98 1.71 1.81 2.10 2.19 2.12 1.97 1.84 1.71
1.59 1.48 1.38 1.33 1.32 1.33 1.27 1.21 1.13 0.99 0.92 0.92 1.01 1.00 1.11 1.25 1.31 1.36 1.37 1.43 1.45 1.50 1.64 1.69 1.75 1.98 2.19 2.37 2.54 2.66 2.64 2.65 2.64 2.40 2.10 1.78 1.69 1.83 2.09 2.12 2.08 2.09 1.85
1.67 1.56 1.42 1.34 1.32 1.30 1.28 1.23 1.14 1.06 1.00 1.00 1.11 1.16 1.12 1.16 1.25 1.34 1.36 1.34 1.37 1.37 1.42 1.48 1.54 1.60 1.82 1.97 2.08 2.30 2.50 2.76 2.83 2.68 2.41 2.06 1.89 1.76 1.86 2.10 2.18 2.11 2.05
1.69 1.69 1.54 1.48 1.47 1.35 1.27 1.26 1.21 1.18 1.10 1.09 1.18 1.28 1.34 1.33 1.32 1.39 1.34 1.30 1.33 1.31 1.33 1.31 1.35 1.41 1.53 1.73 1.76 1.98 2.29 2.60 2.70 2.78 2.67 2.35 2.03 1.86 1.64 1.77 2.06 2.29 2.30
1.42 1.50 1.50 1.42 1.32 1.28 1.28 1.25 1.17 1.12 1.06 1.00 1.01 1.06 1.14 1.22 1.58 1.55 1.30 1.18 1.23 1.29 1.33 1.30 1.31 1.28 1.26 1.36 1.51 1.64 1.93 2.17 2.30 2.39 2.43 2.26 2.00 1.87 1.85 1.80 1.90 2.12 2.19
1.14 1.27 1.29 1.24 1.15 1.15 1.22 1.19 1.09 1.01 0.99 0.92 0.91 0.86 0.89 1.11 1.31 1.15 1.16 1.10 1.18 1.28 1.36 1.40 1.33 1.25 1.29 1.28 1.34 1.37 1.42 1.65 1.87 2.10 2.17 2.01 2.06 2.01 1.98 1.86 1.87 1.91 1.93
0.82 0.91 0.99 1.07 1.07 1.05 1.10 1.14 1.15 1.07 0.97 0.89 0.91 0.94 0.92 1.00 1.18 1.04 1.02 1.04 1.20 1.31 1.29 1.26 1.34 1.35 1.39 1.47 1.38 1.40 1.33 1.31 1.42 1.46 1.65 1.88 2.07 2.27 2.28 2.19 2.20 2.13 2.04
0.62 0.66 0.72 0.80 0.90 0.98 0.98 1.00 1.17 1.20 1.11 1.02 1.06 1.08 1.01 0.99 1.13 1.09 1.09 1.07 1.19 1.28 1.25 1.26 1.38 1.43 1.67 1.78 1.58 1.58 1.50 1.43 1.42 1.55 1.67 1.79 1.92 2.06 2.27 2.34 2.30 2.29 2.17
0.57 0.58 0.65 0.65 0.72 0.85 0.96 1.01 1.01 0.99 1.02 1.05 1.05 0.96 0.93 0.99 1.14 1.11 1.17 1.21 1.29 1.38 1.36 1.39 1.67 1.67 1.76 1.74 1.57 1.66 1.58 1.40 1.32 1.38 1.44 1.52 1.56 1.70 1.90 1.96 2.16 2.35 2.26
0.62 0.62 0.62 0.63 0.66 0.72 0.76 0.76 0.79 0.84 0.84 0.85 0.84 0.86 0.90 1.01 1.09 1.15 1.34 1.35 1.38 1.50 1.48 1.46 1.44 1.68 1.65 1.59 1.58 1.55 1.65 1.54 1.42 1.42 1.39 1.38 1.42 1.50 1.57 1.65 1.82 2.06 2.21
0.58 0.58 0.55 0.56 0.57 0.58 0.62 0.62 0.63 0.72 0.79 0.82 0.86 0.91 0.93 0.96 1.02 1.07 1.21 1.29 1.36 1.51 1.54 1.40 1.29 1.60 1.58 1.50 1.43 1.46 1.66 1.69 1.61 1.62 1.57 1.46 1.36 1.34 1.35 1.45 1.58 1.72 1.86
0.54 0.50 0.52 0.55 0.55 0.52 0.54 0.58 0.64 0.66 0.70 0.73 0.79 0.86 0.96 0.99 1.00 1.13 1.14 1.18 1.29 1.42 1.46 1.47 1.43 1.47 1.40 1.33 1.48 1.56 1.57 1.53 1.60 1.66 1.52 1.34 1.25 1.26 1.35 1.47 1.61 1.73 1.81
0.48 0.45 0.49 0.54 0.56 0.54 0.53 0.55 0.56 0.59 0.60 0.65 0.72 0.77 0.82 0.90 0.96 1.11 1.23 1.23 1.28 1.31 1.32 1.38 1.36 1.29 1.27 1.26 1.35 1.49 1.50 1.56 1.61 1.54 1.43 1.27 1.27 1.35 1.38 1.42 1.59 1.75 1.91
0.47 0.47 0.45 0.50 0.55 0.58 0.55 0.55 0.56 0.56 0.65 0.72 0.73 0.76 0.77 0.78 0.87 1.08 1.26 1.37 1.48 1.59 1.61 1.42 1.31 1.26 1.22 1.19 1.23 1.30 1.36 1.38 1.43 1.41 1.38 1.38 1.36 1.38 1.38 1.35 1.46 1.57 1.60
0.46 0.45 0.44 0.43 0.46 0.52 0.58 0.57 0.60 0.61 0.71 0.74 0.74 0.76 0.76 0.83 0.87 0.89 0.99 1.21 1.51 1.85 2.06 1.88 1.76 1.62 1.49 1.36 1.30 1.27 1.22 1.20 1.24 1.31 1.35 1.35 1.39 1.46 1.50 1.45 1.46 1.51 1.52
0.44 0.45 0.43 0.41 0.42 0.46 0.52 0.59 0.62 0.59 0.58 0.59 0.61 0.67 0.72 0.79 0.81 0.86 0.92 1.00 1.22 1.62 1.97 1.91 1.84 1.65 1.51 1.43 1.32 1.23 1.16 1.12 1.19 1.21 1.24 1.31 1.35 1.41 1.49 1.48 1.43 1.45 1.47
0.47 0.49 0.49 0.48 0.46 0.49 0.51 0.57 0.69 0.77 0.72 0.59 0.62 0.67 0.71 0.77 0.83 0.96 1.10 1.18 1.22 1.38 1.52 1.57 1.51 1.43 1.34 1.20 1.14 1.12 1.08 1.11 1.18 1.19 1.19 1.21 1.27 1.36 1.41 1.47 1.47 1.45 1.48
0.47 0.52 0.55 0.57 0.53 0.54 0.58 0.63 0.69 0.63 0.63 0.63 0.61 0.63 0.74 0.80 0.84 0.90 1.00 1.01 0.99 1.05 1.08 1.08 1.08 1.08 1.07 1.02 0.98 0.97 1.01 1.06 1.12 1.18 1.20 1.18 1.19 1.26 1.35 1.43 1.51 1.63 1.59
0.43 0.55 0.62 0.68 0.62 0.57 0.64 0.67 0.63 0.60 0.63 0.67 0.63 0.61 0.69 0.76 0.78 0.83 0.89 0.88 0.84 0.85 0.84 0.83 0.85 0.88 0.91 0.92 0.94 0.97 0.99 1.03 1.09 1.14 1.16 1.22 1.23 1.24 1.27 1.35 1.45 1.54 1.55
0.48 0.51 0.56 0.65 0.67 0.65 0.70 0.69 0.67 0.66 0.66 0.68 0.67 0.70 0.78 0.77 0.77 0.79 0.80 0.80 0.82 0.84 0.83 0.83 0.82 0.85 0.90 0.92 0.96 1.02 1.07 1.09 1.12 1.19 1.18 1.20 1.26 1.30 1.32 1.36 1.41 1.45 1.51
0.50 0.55 0.52 0.56 0.63 0.68 0.71 0.71 0.72 0.70 0.68 0.69 0.70 0.73 0.78 0.75 0.74 0.75 0.75 0.77 0.79 0.83 0.88 0.91 0.93 0.94 0.94 0.97 1.01 1.06 1.10 1.12 1.13 1.19 1.24 1.24 1.25 1.27 1.30 1.35 1.41 1.46 1.47
0.50 0.59 0.58 0.58 0.60 0.68 0.69 0.67 0.73 0.75 0.73 0.73 0.74 0.71 0.72 0.72 0.73 0.77 0.78 0.78 0.82 0.84 0.84 0.87 0.93 0.95 0.94 0.96 1.02 1.10 1.16 1.18 1.19 1.24 1.32 1.32 1.27 1.28 1.32 1.32 1.34 1.43 1.47
0.55 0.63 0.68 0.71 0.71 0.72 0.70 0.69 0.70 0.70 0.72 0.75 0.75 0.72 0.76 0.80 0.79 0.76 0.78 0.84 0.86 0.85 0.83 0.82 0.84 0.89 0.92 0.97 1.01 1.07 1.09 1.15 1.21 1.27 1.33 1.38 1.36 1.31 1.34 1.39 1.38 1.41 1.50
0.59 0.63 0.70 0.78 0.82 0.82 0.78 0.74 0.70 0.67 0.69 0.73 0.70 0.70 0.70 0.74 0.77 0.77 0.79 0.85 0.88 0.87 0.86 0.85 0.85 0.87 0.88 0.91 0.97 1.01 1.16 1.23 1.23 1.26 1.34 1.47 1.49 1.43 1.41 1.47 1.53 1.55 1.60
0.60 0.62 0.68 0.77 0.85 0.89 0.87 0.84 0.79 0.74 0.72 0.71 0.69 0.71 0.75 0.78 0.81 0.83 0.86 0.90 0.92 0.91 0.89 0.89 0.90 0.90 0.90 0.90 0.96 1.09 1.16 1.12 1.14 1.24 1.32 1.47 1.60 1.62 1.60 1.60 1.59 1.63 1.67